TGM annuale;;;;;;;;;;;;;;;TGM annuale;;;;;;;;;;;;;;;TGM annuale;;;;;;;;;;;;;
Tratta nr.19 SR69, Km 7.100, Reggello(FI) (flussi ascendente/discendente);;;;;;;;;;;;;;;Tratta nr.19 SR69, Km 7.100, Reggello(FI) (flusso ascendente);;;;;;;;;;;;;;;Tratta nr.19 SR69, Km 7.100, Reggello(FI) (flusso discendente);;;;;;;;;;;;;
Anno;01 Motocicli;02 Auto e monovolume;03 Auto e monovolume con rimorchio;04 Furgoncini e camioncini;05 Camion;06 Autotreni;07 Autoarticolati;08 Autobus;09 Veicoli non classificati;Totale;Feriali;Festivi;Prefestivi;;Anno;01 Motocicli;02 Auto e monovolume;03 Auto e monovolume con rimorchio;04 Furgoncini e camioncini;05 Camion;06 Autotreni;07 Autoarticolati;08 Autobus;09 Veicoli non classificati;Totale;Feriali;Festivi;Prefestivi;;Anno;01 Motocicli;02 Auto e monovolume;03 Auto e monovolume con rimorchio;04 Furgoncini e camioncini;05 Camion;06 Autotreni;07 Autoarticolati;08 Autobus;09 Veicoli non classificati;Totale;Feriali;Festivi;Prefestivi
2017;153;5288;4;464;131;15;17;15;0;6087;6432;4974;5701;;2017;43;2630;2;234;66;7;7;8;0;2997;3182;2386;2807;;2017;110;2657;2;231;65;8;10;7;0;3090;3249;2589;2894
;;;;;;;;;;;;;;;;;;;;;;;;;;;;;;;;;;;;;;;;;;;
Tabella flussi 2017;;;;;;;;;;;;;;;Tabella flussi 2017;;;;;;;;;;;;;;;Tabella flussi 2017;;;;;;;;;;;;;
Tratta nr.19 SR69, Km 7.100, Reggello(FI) (flussi ascendente/discendente);;;;;;;;;;;;;;;Tratta nr.19 SR69, Km 7.100, Reggello(FI) (flusso ascendente);;;;;;;;;;;;;;;Tratta nr.19 SR69, Km 7.100, Reggello(FI) (flusso discendente);;;;;;;;;;;;;
;Traffico Totale;;;;;;;;;;Traffico Med.Orario 06:00 - 20:00;Traffico Ora di punta;;;;Traffico Totale;;;;;;;;;;Traffico Med.Orario 06:00 - 20:00;Traffico Ora di punta;;;;Traffico Totale;;;;;;;;;;Traffico Med.Orario 06:00 - 20:00;Traffico Ora di punta;
Giorno;01 Motocicli;02 Auto e monovolume;03 Auto e monovolume con rimorchio;04 Furgoncini e camioncini;05 Camion;06 Autotreni;07 Autoarticolati;08 Autobus;09 Veicoli non classificati;Totale;Totale;Ora di punta;Flusso totale ora di punta;;Giorno;01 Motocicli;02 Auto e monovolume;03 Auto e monovolume con rimorchio;04 Furgoncini e camioncini;05 Camion;06 Autotreni;07 Autoarticolati;08 Autobus;09 Veicoli non classificati;Totale;Totale;Ora di punta;Flusso totale ora di punta;;Giorno;01 Motocicli;02 Auto e monovolume;03 Auto e monovolume con rimorchio;04 Furgoncini e camioncini;05 Camion;06 Autotreni;07 Autoarticolati;08 Autobus;09 Veicoli non classificati;Totale;Totale;Ora di punta;Flusso totale ora di punta
01/01/2017;95;3142;0;96;7;1;1;1;0;3343;165;16;305;;01/01/2017;12;1557;0;45;3;1;0;0;0;1618;82;16;163;;01/01/2017;83;1585;0;51;4;0;1;1;0;1725;83;15;149
02/01/2017;123;4570;2;351;78;10;9;12;0;5155;330;17;508;;02/01/2017;6;2118;1;164;41;7;3;5;0;2345;152;7;214;;02/01/2017;117;2452;1;187;37;3;6;7;0;2810;178;17;335
03/01/2017;103;4579;0;385;93;3;10;9;0;5182;329;17;488;;03/01/2017;13;2267;0;195;41;1;5;4;0;2526;162;8;224;;03/01/2017;90;2312;0;190;52;2;5;5;0;2656;168;17;273
04/01/2017;94;5005;4;502;100;14;11;10;0;5740;367;17;544;;04/01/2017;15;2472;2;249;52;9;6;5;0;2810;181;17;245;;04/01/2017;79;2533;2;253;48;5;5;5;0;2930;186;17;299
05/01/2017;102;5321;0;465;122;17;11;10;0;6048;383;17;580;;05/01/2017;15;2578;0;230;58;7;8;4;0;2900;184;17;270;;05/01/2017;87;2743;0;235;64;10;3;6;0;3148;199;17;310
06/01/2017;99;3939;3;111;12;0;1;3;0;4168;254;17;436;;06/01/2017;18;1919;1;49;7;0;1;0;0;1995;121;15;201;;06/01/2017;81;2020;2;62;5;0;0;3;0;2173;132;17;273
07/01/2017;107;5389;1;229;52;2;0;7;0;5787;361;15;564;;07/01/2017;10;2395;0;93;26;1;0;4;0;2529;158;14;235;;07/01/2017;97;2994;1;136;26;1;0;3;0;3258;203;17;383
08/01/2017;138;4277;2;123;5;2;1;7;0;4555;279;17;533;;08/01/2017;34;2034;1;55;2;1;0;4;0;2131;133;15;275;;08/01/2017;104;2243;1;68;3;1;1;3;0;2424;146;17;331
09/01/2017;73;5136;2;468;133;8;18;3;0;5841;378;17;592;;09/01/2017;14;2566;1;234;63;5;6;0;0;2889;187;17;283;;09/01/2017;59;2570;1;234;70;3;12;3;0;2952;192;17;309
10/01/2017;96;5287;7;523;155;25;23;10;0;6126;399;17;591;;10/01/2017;9;2639;3;264;73;14;7;6;0;3015;198;17;281;;10/01/2017;87;2648;4;259;82;11;16;4;0;3111;201;17;310
11/01/2017;92;5370;0;523;127;19;20;13;0;6164;396;17;563;;11/01/2017;11;2677;0;253;64;14;9;6;0;3034;195;7;304;;11/01/2017;81;2693;0;270;63;5;11;7;0;3130;201;18;300
12/01/2017;94;5259;3;514;163;14;13;10;0;6070;392;17;570;;12/01/2017;10;2638;2;251;77;6;6;6;0;2996;194;7;324;;12/01/2017;84;2621;1;263;86;8;7;4;0;3074;198;17;297
13/01/2017;101;5210;4;497;167;17;11;8;0;6015;381;8;553;;13/01/2017;7;2605;2;244;83;8;5;5;0;2959;188;8;289;;13/01/2017;94;2605;2;253;84;9;6;3;0;3056;193;17;279
14/01/2017;112;4955;7;255;56;2;4;9;0;5400;330;16;456;;14/01/2017;11;2485;4;136;21;2;2;7;0;2668;163;16;233;;14/01/2017;101;2470;3;119;35;0;2;2;0;2732;167;17;255
15/01/2017;110;4139;2;120;3;3;1;11;0;4389;262;17;502;;15/01/2017;7;2009;1;64;3;1;1;6;0;2092;127;15;268;;15/01/2017;103;2130;1;56;0;2;0;5;0;2297;134;17;317
16/01/2017;99;4848;3;493;157;13;25;11;0;5649;365;8;533;;16/01/2017;21;2391;1;236;76;7;9;6;0;2747;178;8;285;;16/01/2017;78;2457;2;257;81;6;16;5;0;2902;187;8;248
17/01/2017;91;4529;0;436;115;11;27;12;0;5221;337;8;495;;17/01/2017;7;2267;0;221;64;5;14;7;0;2585;167;7;257;;17/01/2017;84;2262;0;215;51;6;13;5;0;2636;170;17;260
18/01/2017;92;5251;1;489;135;17;19;9;0;6013;388;17;579;;18/01/2017;9;2646;1;248;62;9;5;4;0;2984;191;7;306;;18/01/2017;83;2605;0;241;73;8;14;5;0;3029;197;17;316
19/01/2017;108;5333;0;560;153;16;23;10;0;6203;395;17;591;;19/01/2017;15;2663;0;279;74;7;10;4;0;3052;195;7;312;;19/01/2017;93;2670;0;281;79;9;13;6;0;3151;200;17;311
20/01/2017;125;5515;3;481;139;11;14;12;0;6300;395;17;584;;20/01/2017;20;2764;0;237;76;4;5;6;0;3112;195;7;291;;20/01/2017;105;2751;3;244;63;7;9;6;0;3188;200;17;297
21/01/2017;98;5162;7;273;47;4;4;18;0;5613;342;17;480;;21/01/2017;13;2584;4;138;23;3;3;10;0;2778;168;15;231;;21/01/2017;85;2578;3;135;24;1;1;8;0;2835;174;17;260
22/01/2017;94;4651;0;125;13;6;0;9;0;4898;294;16;540;;22/01/2017;17;2285;0;58;5;2;0;6;0;2373;145;16;330;;22/01/2017;77;2366;0;67;8;4;0;3;0;2525;149;17;310
23/01/2017;97;5120;2;482;153;23;23;10;0;5910;384;17;576;;23/01/2017;19;2568;2;258;69;14;8;5;0;2943;191;7;294;;23/01/2017;78;2552;0;224;84;9;15;5;0;2967;193;17;307
24/01/2017;112;5268;3;518;156;9;30;8;0;6104;398;17;578;;24/01/2017;19;2678;2;264;84;3;11;5;0;3066;201;7;314;;24/01/2017;93;2590;1;254;72;6;19;3;0;3038;197;17;300
25/01/2017;95;5293;1;644;205;19;26;14;0;6297;407;17;596;;25/01/2017;19;2675;1;319;107;10;12;7;0;3150;203;7;331;;25/01/2017;76;2618;0;325;98;9;14;7;0;3147;204;17;321
26/01/2017;111;5516;1;597;187;19;28;13;0;6472;416;17;662;;26/01/2017;21;2751;1;314;101;10;13;5;0;3216;208;7;325;;26/01/2017;90;2765;0;283;86;9;15;8;0;3256;208;17;339
27/01/2017;86;5568;2;583;147;15;15;15;0;6431;403;17;583;;27/01/2017;15;2806;1;298;74;8;5;6;0;3213;202;8;287;;27/01/2017;71;2762;1;285;73;7;10;9;0;3218;200;17;315
28/01/2017;129;5178;5;283;46;6;7;15;0;5669;341;16;466;;28/01/2017;31;2588;3;136;23;1;4;9;0;2795;166;16;216;;28/01/2017;98;2590;2;147;23;5;3;6;0;2874;175;17;259
29/01/2017;127;4648;8;155;19;2;0;9;0;4968;293;17;565;;29/01/2017;24;2275;4;68;8;0;0;7;0;2386;143;17;249;;29/01/2017;103;2373;4;87;11;2;0;2;0;2582;150;17;316
30/01/2017;106;5131;2;540;146;17;29;15;0;5986;391;17;625;;30/01/2017;18;2578;1;279;79;7;13;9;0;2984;195;17;311;;30/01/2017;88;2553;1;261;67;10;16;6;0;3002;196;17;314
31/01/2017;118;5378;5;512;159;12;15;10;0;6209;400;7;603;;31/01/2017;14;2713;3;250;88;9;9;5;0;3091;201;7;340;;31/01/2017;104;2665;2;262;71;3;6;5;0;3118;199;17;288
01/02/2017;103;5394;0;552;144;16;18;18;0;6245;402;17;592;;01/02/2017;13;2676;0;279;78;7;10;9;0;3072;199;7;315;;01/02/2017;90;2718;0;273;66;9;8;9;0;3173;203;17;312
02/02/2017;127;5392;2;575;182;13;28;14;0;6333;406;7;577;;02/02/2017;14;2697;1;286;94;7;13;7;0;3119;200;7;315;;02/02/2017;113;2695;1;289;88;6;15;7;0;3214;205;17;305
03/02/2017;;;;;;;;;;;;;;;03/02/2017;;;;;;;;;;;;;;;03/02/2017;;;;;;;;;;;;;
04/02/2017;111;4956;0;222;54;5;4;8;0;5360;318;19;411;;04/02/2017;15;2506;0;105;24;1;2;4;0;2657;159;16;205;;04/02/2017;96;2450;0;117;30;4;2;4;0;2703;160;18;223
05/02/2017;;;;;;;;;;;;;;;05/02/2017;;;;;;;;;;;;;;;05/02/2017;;;;;;;;;;;;;
06/02/2017;;;;;;;;;;;;;;;06/02/2017;;;;;;;;;;;;;;;06/02/2017;;;;;;;;;;;;;
07/02/2017;;;;;;;;;;;;;;;07/02/2017;;;;;;;;;;;;;;;07/02/2017;;;;;;;;;;;;;
08/02/2017;107;5404;1;578;173;10;19;16;0;6308;408;17;611;;08/02/2017;17;2719;1;290;91;5;7;9;0;3139;203;7;304;;08/02/2017;90;2685;0;288;82;5;12;7;0;3169;205;17;325
09/02/2017;94;5304;6;532;162;17;20;17;0;6152;387;17;556;;09/02/2017;18;2645;3;279;83;12;10;7;0;3057;193;7;319;;09/02/2017;76;2659;3;253;79;5;10;10;0;3095;194;17;297
10/02/2017;112;5530;2;556;135;12;17;12;0;6376;397;17;612;;10/02/2017;23;2742;1;287;68;5;6;5;0;3137;196;17;295;;10/02/2017;89;2788;1;269;67;7;11;7;0;3239;201;17;317
11/02/2017;;;;;;;;;;;;;;;11/02/2017;;;;;;;;;;;;;;;11/02/2017;;;;;;;;;;;;;
12/02/2017;;;;;;;;;;;;;;;12/02/2017;;;;;;;;;;;;;;;12/02/2017;;;;;;;;;;;;;
13/02/2017;88;5110;4;549;148;16;26;10;0;5951;387;17;553;;13/02/2017;14;2579;1;279;71;6;11;5;0;2966;193;7;306;;13/02/2017;74;2531;3;270;77;10;15;5;0;2985;194;18;280
14/02/2017;131;5570;2;543;167;22;30;10;0;6475;415;17;599;;14/02/2017;28;2758;1;274;88;15;14;4;0;3182;205;7;324;;14/02/2017;103;2812;1;269;79;7;16;6;0;3293;211;17;319
15/02/2017;106;5593;5;569;175;11;21;13;0;6493;416;17;598;;15/02/2017;16;2785;2;286;87;5;7;7;0;3195;204;7;322;;15/02/2017;90;2808;3;283;88;6;14;6;0;3298;212;17;326
16/02/2017;139;5447;0;509;192;14;15;9;0;6325;406;7;608;;16/02/2017;29;2748;0;257;97;9;7;4;0;3151;204;7;355;;16/02/2017;110;2699;0;252;95;5;8;5;0;3174;202;17;298
17/02/2017;139;5513;2;547;163;17;23;8;0;6412;402;17;599;;17/02/2017;30;2774;1;267;83;9;9;4;0;3177;201;17;300;;17/02/2017;109;2739;1;280;80;8;14;4;0;3235;201;17;299
18/02/2017;141;5393;4;249;64;6;5;12;0;5874;353;17;485;;18/02/2017;31;2675;1;118;23;4;4;5;0;2861;171;17;230;;18/02/2017;110;2718;3;131;41;2;1;7;0;3013;182;17;255
19/02/2017;144;4812;7;133;12;5;1;5;0;5119;308;17;535;;19/02/2017;36;2346;3;64;5;0;0;3;0;2457;150;15;268;;19/02/2017;108;2466;4;69;7;5;1;2;0;2662;158;17;317
20/02/2017;113;5184;2;499;157;15;18;9;0;5997;390;8;678;;20/02/2017;21;2530;1;249;86;9;6;3;0;2905;188;7;307;;20/02/2017;92;2654;1;250;71;6;12;6;0;3092;201;8;378
21/02/2017;128;5448;2;502;183;21;20;10;0;6314;404;17;585;;21/02/2017;19;2682;1;251;91;6;8;4;0;3062;196;7;313;;21/02/2017;109;2766;1;251;92;15;12;6;0;3252;208;17;309
22/02/2017;112;5550;6;591;144;17;20;13;0;6453;411;17;628;;22/02/2017;26;2731;3;304;69;9;9;5;0;3156;201;7;309;;22/02/2017;86;2819;3;287;75;8;11;8;0;3297;209;17;345
23/02/2017;119;5578;1;565;212;18;24;14;0;6531;416;7;620;;23/02/2017;16;2808;1;294;115;6;15;7;0;3262;208;7;329;;23/02/2017;103;2770;0;271;97;12;9;7;0;3269;209;17;305
24/02/2017;114;5455;5;514;143;12;14;10;0;6267;393;7;547;;24/02/2017;14;2725;3;246;67;6;6;4;0;3071;193;7;308;;24/02/2017;100;2730;2;268;76;6;8;6;0;3196;200;17;293
25/02/2017;134;5209;3;251;58;3;4;12;0;5674;343;19;454;;25/02/2017;32;2614;2;117;32;2;3;6;0;2808;169;15;224;;25/02/2017;102;2595;1;134;26;1;1;6;0;2866;173;18;270
26/02/2017;154;4676;7;134;14;3;0;7;0;4995;302;18;477;;26/02/2017;37;2294;4;63;4;3;0;4;0;2409;147;15;255;;26/02/2017;117;2382;3;71;10;0;0;3;0;2586;155;18;276
27/02/2017;122;5264;6;503;167;24;26;14;0;6126;395;8;619;;27/02/2017;25;2641;4;245;81;12;7;8;0;3023;194;8;320;;27/02/2017;97;2623;2;258;86;12;19;6;0;3103;201;17;308
28/02/2017;110;5299;5;490;166;15;25;16;0;6126;388;7;608;;28/02/2017;14;2643;0;251;83;9;16;8;0;3024;191;7;328;;28/02/2017;96;2656;5;239;83;6;9;8;0;3102;197;17;317
01/03/2017;132;5592;0;569;169;19;20;25;0;6526;415;8;598;;01/03/2017;32;2846;0;277;85;12;6;10;0;3268;208;8;301;;01/03/2017;100;2746;0;292;84;7;14;15;0;3258;206;8;297
02/03/2017;111;5297;5;525;171;19;37;13;0;6178;394;8;603;;02/03/2017;18;2662;2;256;94;9;18;6;0;3065;197;8;318;;02/03/2017;93;2635;3;269;77;10;19;7;0;3113;198;8;285
03/03/2017;149;5649;3;611;170;33;17;10;0;6642;416;7;579;;03/03/2017;33;2853;1;309;86;13;6;4;0;3305;207;7;303;;03/03/2017;116;2796;2;302;84;20;11;6;0;3337;209;17;294
04/03/2017;124;4835;5;251;50;3;6;11;0;5285;316;17;401;;04/03/2017;13;2422;3;122;25;1;3;6;0;2595;156;9;199;;04/03/2017;111;2413;2;129;25;2;3;5;0;2690;160;18;229
05/03/2017;98;4461;0;115;12;4;1;8;0;4699;280;17;486;;05/03/2017;9;2199;0;50;5;3;0;6;0;2272;137;16;253;;05/03/2017;89;2262;0;65;7;1;1;2;0;2427;143;18;277
06/03/2017;123;5143;2;502;164;12;16;9;0;5971;387;17;584;;06/03/2017;17;2566;1;238;77;7;5;5;0;2916;189;7;308;;06/03/2017;106;2577;1;264;87;5;11;4;0;3055;197;17;315
07/03/2017;99;5334;3;502;203;17;15;13;0;6186;397;17;595;;07/03/2017;21;2663;3;262;98;4;8;6;0;3065;198;7;324;;07/03/2017;78;2671;0;240;105;13;7;7;0;3121;199;17;317
08/03/2017;159;5749;5;588;205;14;25;12;0;6757;427;17;631;;08/03/2017;36;2880;2;290;103;7;10;6;0;3334;211;7;315;;08/03/2017;123;2869;3;298;102;7;15;6;0;3423;216;17;348
09/03/2017;164;5528;4;619;183;13;32;8;0;6551;414;7;617;;09/03/2017;40;2756;3;304;96;7;14;2;0;3222;204;7;341;;09/03/2017;124;2772;1;315;87;6;18;6;0;3329;210;18;313
10/03/2017;155;5726;1;595;194;14;16;22;0;6723;426;17;585;;10/03/2017;26;2824;1;295;97;8;9;13;0;3273;208;7;312;;10/03/2017;129;2902;0;300;97;6;7;9;0;3450;218;18;341
11/03/2017;169;5244;4;310;51;1;2;19;0;5800;348;19;477;;11/03/2017;42;2624;2;154;25;0;2;9;0;2858;171;19;233;;11/03/2017;127;2620;2;156;26;1;0;10;0;2942;176;18;248
12/03/2017;190;5372;4;190;13;6;3;16;0;5794;351;17;824;;12/03/2017;40;2392;1;81;6;3;0;9;0;2532;154;18;276;;12/03/2017;150;2980;3;109;7;3;3;7;0;3262;197;17;577
13/03/2017;130;5333;2;528;208;14;20;13;0;6248;401;17;606;;13/03/2017;35;2670;1;273;104;8;8;4;0;3103;199;7;307;;13/03/2017;95;2663;1;255;104;6;12;9;0;3145;201;17;309
14/03/2017;124;5432;1;517;183;22;21;11;0;6311;407;7;626;;14/03/2017;28;2706;0;263;93;10;7;5;0;3112;202;7;347;;14/03/2017;96;2726;1;254;90;12;14;6;0;3199;205;17;305
15/03/2017;137;5627;2;617;201;31;26;12;0;6653;427;7;623;;15/03/2017;33;2791;1;321;89;18;7;7;0;3267;210;7;327;;15/03/2017;104;2836;1;296;112;13;19;5;0;3386;216;17;315
16/03/2017;140;5669;2;613;231;18;23;13;0;6709;426;7;617;;16/03/2017;31;2825;1;321;129;12;9;6;0;3334;213;7;342;;16/03/2017;109;2844;1;292;102;6;14;7;0;3375;213;17;317
17/03/2017;162;5591;4;567;209;35;21;13;0;6602;414;17;593;;17/03/2017;35;2774;3;295;94;16;8;7;0;3232;203;7;303;;17/03/2017;127;2817;1;272;115;19;13;6;0;3370;211;17;315
18/03/2017;201;5220;10;313;52;5;6;9;0;5816;349;17;491;;18/03/2017;60;2631;7;159;25;4;4;3;0;2893;174;16;230;;18/03/2017;141;2589;3;154;27;1;2;6;0;2923;175;17;271
19/03/2017;229;4706;4;158;15;5;1;4;0;5122;306;17;569;;19/03/2017;74;2298;1;72;7;3;0;1;0;2456;149;17;261;;19/03/2017;155;2408;3;86;8;2;1;3;0;2666;156;17;308
20/03/2017;122;5173;8;487;213;21;17;13;0;6054;389;7;596;;20/03/2017;33;2581;3;241;103;12;8;4;0;2985;192;7;332;;20/03/2017;89;2592;5;246;110;9;9;9;0;3069;197;17;313
21/03/2017;149;5527;6;544;239;22;27;9;0;6523;418;17;656;;21/03/2017;30;2731;4;271;122;11;12;5;0;3186;204;17;315;;21/03/2017;119;2796;2;273;117;11;15;4;0;3337;213;18;343
22/03/2017;127;5491;4;555;210;17;19;13;0;6436;410;7;624;;22/03/2017;30;2760;2;275;110;5;9;8;0;3199;203;7;344;;22/03/2017;97;2731;2;280;100;12;10;5;0;3237;207;17;304
23/03/2017;134;5680;1;614;165;10;20;15;0;6639;424;17;648;;23/03/2017;26;2832;1;309;87;5;10;9;0;3279;208;7;335;;23/03/2017;108;2848;0;305;78;5;10;6;0;3360;215;17;345
24/03/2017;141;5320;1;567;130;13;24;12;0;6208;389;8;579;;24/03/2017;41;2669;1;285;62;7;8;4;0;3077;193;7;314;;24/03/2017;100;2651;0;282;68;6;16;8;0;3131;196;17;292
25/03/2017;238;5215;6;322;61;4;3;10;0;5859;352;16;460;;25/03/2017;67;2593;2;149;32;3;1;6;0;2853;170;16;231;;25/03/2017;171;2622;4;173;29;1;2;4;0;3006;181;19;256
26/03/2017;117;4819;8;152;18;10;2;24;0;5150;311;18;545;;26/03/2017;24;2418;2;69;8;5;0;11;0;2537;153;15;256;;26/03/2017;93;2401;6;83;10;5;2;13;0;2613;158;18;332
27/03/2017;129;5315;5;558;181;24;24;13;0;6249;400;17;586;;27/03/2017;33;2650;3;276;99;12;12;9;0;3094;199;8;313;;27/03/2017;96;2665;2;282;82;12;12;4;0;3155;202;17;277
28/03/2017;139;5375;3;575;210;22;22;15;0;6361;407;7;623;;28/03/2017;33;2711;2;292;105;13;9;9;0;3174;203;7;344;;28/03/2017;106;2664;1;283;105;9;13;6;0;3187;204;17;309
29/03/2017;151;5476;0;595;198;16;17;14;0;6467;411;7;600;;29/03/2017;33;2698;0;302;100;8;9;5;0;3155;202;7;312;;29/03/2017;118;2778;0;293;98;8;8;9;0;3312;209;17;303
30/03/2017;143;5725;4;573;230;22;25;11;0;6733;428;17;653;;30/03/2017;45;2854;2;282;111;12;12;5;0;3323;211;7;346;;30/03/2017;98;2871;2;291;119;10;13;6;0;3410;217;17;333
31/03/2017;193;5686;8;541;185;23;12;16;0;6664;415;8;593;;31/03/2017;57;2819;4;281;94;13;5;6;0;3279;204;7;320;;31/03/2017;136;2867;4;260;91;10;7;10;0;3385;211;8;294
01/04/2017;224;5585;3;302;57;7;4;14;0;6196;375;18;519;;01/04/2017;73;2755;2;149;29;3;2;10;0;3023;184;19;238;;01/04/2017;151;2830;1;153;28;4;2;4;0;3173;191;18;305
02/04/2017;133;4896;6;168;13;3;3;14;0;5236;315;18;565;;02/04/2017;29;2356;4;72;4;1;1;9;0;2476;152;15;253;;02/04/2017;104;2540;2;96;9;2;2;5;0;2760;163;18;361
03/04/2017;131;5143;3;562;192;15;17;11;0;6074;388;17;606;;03/04/2017;26;2535;3;274;95;10;7;6;0;2956;187;7;322;;03/04/2017;105;2608;0;288;97;5;10;5;0;3118;200;17;327
04/04/2017;153;6301;8;652;231;48;35;30;0;7458;457;18;778;;04/04/2017;43;3505;5;353;128;29;30;20;0;4113;243;19;501;;04/04/2017;110;2796;3;299;103;19;5;10;0;3345;214;18;348
05/04/2017;130;5495;9;557;159;24;25;16;0;6415;408;7;593;;05/04/2017;27;2758;6;285;76;14;12;7;0;3185;203;7;334;;05/04/2017;103;2737;3;272;83;10;13;9;0;3230;205;18;266
06/04/2017;129;5696;5;598;225;13;35;12;0;6713;423;7;621;;06/04/2017;32;2866;1;313;118;6;12;5;0;3353;212;7;349;;06/04/2017;97;2830;4;285;107;7;23;7;0;3360;211;17;318
07/04/2017;141;5825;3;611;189;13;20;13;0;6815;426;7;586;;07/04/2017;46;2889;0;310;91;4;11;9;0;3360;210;8;326;;07/04/2017;95;2936;3;301;98;9;9;4;0;3455;216;17;307
08/04/2017;244;5634;2;294;59;6;5;21;0;6265;373;19;522;;08/04/2017;70;2831;1;147;30;4;3;11;0;3097;181;16;227;;08/04/2017;174;2803;1;147;29;2;2;10;0;3168;191;19;319
09/04/2017;288;5385;5;171;27;7;3;7;0;5893;347;18;597;;09/04/2017;113;2597;3;76;12;3;0;3;0;2807;169;16;279;;09/04/2017;175;2788;2;95;15;4;3;4;0;3086;178;18;369
10/04/2017;138;5912;8;599;198;20;42;23;0;6940;416;17;609;;10/04/2017;50;3091;5;313;102;11;29;14;0;3615;211;7;321;;10/04/2017;88;2821;3;286;96;9;13;9;0;3325;205;17;309
11/04/2017;188;5927;3;567;225;24;20;13;0;6967;439;7;633;;11/04/2017;45;2967;1;273;111;13;10;6;0;3426;218;7;344;;11/04/2017;143;2960;2;294;114;11;10;7;0;3541;222;17;327
12/04/2017;166;6288;5;678;190;19;19;17;0;7382;457;7;615;;12/04/2017;36;3181;3;340;97;5;6;10;0;3678;228;7;336;;12/04/2017;130;3107;2;338;93;14;13;7;0;3704;228;9;350
13/04/2017;139;6275;3;637;216;20;29;11;0;7330;453;17;627;;13/04/2017;44;3305;2;335;118;10;16;6;0;3836;238;7;324;;13/04/2017;95;2970;1;302;98;10;13;5;0;3494;215;17;314
14/04/2017;178;6011;10;595;119;6;14;17;0;6950;428;17;642;;14/04/2017;52;3130;5;309;60;1;7;8;0;3572;218;17;304;;14/04/2017;126;2881;5;286;59;5;7;9;0;3378;210;17;338
15/04/2017;178;4734;5;209;46;4;4;10;0;5190;310;17;413;;15/04/2017;51;2331;3;102;24;1;2;3;0;2517;150;15;201;;15/04/2017;127;2403;2;107;22;3;2;7;0;2673;160;17;243
16/04/2017;151;4085;0;68;8;2;0;4;0;4318;238;11;457;;16/04/2017;54;2035;0;35;4;0;0;2;0;2130;118;12;238;;16/04/2017;97;2050;0;33;4;2;0;2;0;2188;120;18;233
17/04/2017;282;5756;6;212;26;4;3;11;0;6300;373;18;714;;17/04/2017;92;2532;4;82;13;2;0;5;0;2730;162;17;247;;17/04/2017;190;3224;2;130;13;2;3;6;0;3570;210;18;475
18/04/2017;153;6431;4;616;199;33;38;21;0;7495;472;17;762;;18/04/2017;25;2765;3;238;93;13;10;10;0;3157;200;17;320;;18/04/2017;128;3666;1;378;106;20;28;11;0;4338;272;17;442
19/04/2017;143;5700;8;562;217;20;19;18;0;6687;423;17;604;;19/04/2017;26;2788;4;273;107;7;8;9;0;3222;207;7;324;;19/04/2017;117;2912;4;289;110;13;11;9;0;3465;216;17;321
20/04/2017;170;5927;0;560;197;19;16;19;0;6908;435;17;629;;20/04/2017;37;2920;0;271;103;12;6;9;0;3358;213;7;337;;20/04/2017;133;3007;0;289;94;7;10;10;0;3550;222;17;335
21/04/2017;150;6031;7;571;204;15;18;16;0;7012;436;17;620;;21/04/2017;54;3104;4;282;100;8;8;9;0;3569;222;7;317;;21/04/2017;96;2927;3;289;104;7;10;7;0;3443;214;17;310
22/04/2017;215;5227;9;308;72;5;5;10;0;5851;354;19;464;;22/04/2017;91;2665;6;165;36;3;2;3;0;2971;182;13;212;;22/04/2017;124;2562;3;143;36;2;3;7;0;2880;172;19;259
23/04/2017;215;4694;6;181;26;9;3;9;0;5143;303;18;563;;23/04/2017;89;2318;4;80;11;1;0;5;0;2508;148;18;233;;23/04/2017;126;2376;2;101;15;8;3;4;0;2635;155;18;330
24/04/2017;195;4888;7;401;150;3;14;13;0;5671;354;17;459;;24/04/2017;60;2447;3;201;79;3;5;6;0;2804;178;9;232;;24/04/2017;135;2441;4;200;71;0;9;7;0;2867;177;18;250
25/04/2017;229;4966;6;211;26;5;4;11;0;5458;334;18;574;;25/04/2017;68;2354;2;100;13;2;1;7;0;2547;154;16;248;;25/04/2017;161;2612;4;111;13;3;3;4;0;2911;180;18;368
26/04/2017;101;5552;0;613;202;18;23;11;0;6520;416;7;636;;26/04/2017;21;2754;0;283;97;11;11;8;0;3185;204;7;354;;26/04/2017;80;2798;0;330;105;7;12;3;0;3335;212;18;289
27/04/2017;107;5799;1;587;229;14;25;15;0;6777;427;7;601;;27/04/2017;11;2911;1;280;129;7;6;8;0;3353;213;7;350;;27/04/2017;96;2888;0;307;100;7;19;7;0;3424;215;18;311
28/04/2017;128;5928;5;544;211;17;15;9;0;6857;429;17;593;;28/04/2017;33;2979;3;264;104;8;5;4;0;3400;213;7;318;;28/04/2017;95;2949;2;280;107;9;10;5;0;3457;216;17;310
29/04/2017;239;5364;9;298;73;6;7;17;0;6013;360;19;487;;29/04/2017;105;2691;4;136;40;2;3;9;0;2990;182;17;234;;29/04/2017;134;2673;5;162;33;4;4;8;0;3023;178;19;284
30/04/2017;288;4934;15;186;20;5;0;13;0;5461;323;19;527;;30/04/2017;116;2450;10;104;11;1;0;6;0;2698;160;15;241;;30/04/2017;172;2484;5;82;9;4;0;7;0;2763;163;19;316
01/05/2017;209;4347;7;172;18;8;3;7;0;4771;290;16;476;;01/05/2017;45;2070;3;67;7;5;0;4;0;2201;134;16;202;;01/05/2017;164;2277;4;105;11;3;3;3;0;2570;156;16;274
02/05/2017;136;5648;1;570;209;12;22;23;0;6621;419;7;589;;02/05/2017;32;2919;1;296;120;5;10;15;0;3398;216;7;326;;02/05/2017;104;2729;0;274;89;7;12;8;0;3223;203;17;293
03/05/2017;121;5652;3;609;158;20;27;10;0;6600;419;17;622;;03/05/2017;25;2815;0;296;84;10;7;5;0;3242;206;17;312;;03/05/2017;96;2837;3;313;74;10;20;5;0;3358;213;17;310
04/05/2017;109;5834;3;616;255;32;21;16;0;6886;434;7;616;;04/05/2017;20;2940;2;303;131;17;10;10;0;3433;218;7;341;;04/05/2017;89;2894;1;313;124;15;11;6;0;3453;216;18;303
05/05/2017;149;5944;5;569;259;18;16;18;0;6978;436;8;588;;05/05/2017;37;2959;4;292;126;13;5;9;0;3445;216;8;301;;05/05/2017;112;2985;1;277;133;5;11;9;0;3533;220;18;317
06/05/2017;138;5611;5;316;58;2;6;11;0;6147;368;19;493;;06/05/2017;27;2792;3;141;25;1;5;6;0;3000;181;9;240;;06/05/2017;111;2819;2;175;33;1;1;5;0;3147;187;19;299
07/05/2017;150;4840;8;140;13;7;2;11;0;5171;306;18;516;;07/05/2017;29;2379;6;64;8;4;0;7;0;2497;149;16;257;;07/05/2017;121;2461;2;76;5;3;2;4;0;2674;156;18;298
08/05/2017;106;5508;4;557;192;23;21;12;0;6423;410;17;625;;08/05/2017;28;2788;2;283;92;10;10;6;0;3219;206;7;354;;08/05/2017;78;2720;2;274;100;13;11;6;0;3204;203;17;309
09/05/2017;114;5688;3;592;190;16;23;16;0;6642;425;17;611;;09/05/2017;27;2860;2;304;99;8;9;10;0;3319;214;7;333;;09/05/2017;87;2828;1;288;91;8;14;6;0;3323;211;17;303
10/05/2017;170;5760;2;640;200;16;26;15;0;6829;436;17;616;;10/05/2017;50;2873;1;312;105;11;9;6;0;3367;216;7;319;;10/05/2017;120;2887;1;328;95;5;17;9;0;3462;220;17;329
11/05/2017;175;5887;6;630;196;14;28;18;0;6954;439;17;637;;11/05/2017;39;2846;3;309;96;5;9;11;0;3318;212;7;337;;11/05/2017;136;3041;3;321;100;9;19;7;0;3636;227;17;334
12/05/2017;175;5993;13;608;197;14;20;14;0;7034;438;17;602;;12/05/2017;58;2992;8;311;101;7;7;6;0;3490;218;7;302;;12/05/2017;117;3001;5;297;96;7;13;8;0;3544;220;17;318
13/05/2017;270;5239;6;290;61;6;3;21;0;5896;349;19;458;;13/05/2017;101;2617;2;157;32;4;2;9;0;2924;174;9;212;;13/05/2017;169;2622;4;133;29;2;1;12;0;2972;175;19;266
14/05/2017;305;5466;3;205;18;5;3;15;0;6020;354;18;573;;14/05/2017;112;2728;1;99;13;4;2;9;0;2968;176;18;271;;14/05/2017;193;2738;2;106;5;1;1;6;0;3052;177;19;340